Powrót do katalogu

STARLINK-2593

AktywnyŁącznośćVLEO
NORAD 48404·PAYLOAD·🇺🇸 United States

Wystrzelony May 4, 2021 z Cape Canaveral Space Force Station

Loading…

Następne Przeloty (najbliższe 24 godziny)

TLE

ŚwieżeSource: CelesTrak SupGP

Epoka: Sep 14, 2026, 21:14 UTC

1 48404C 21038BD  26257.88520833 -.00026573  00000+0 -85464-3 0  2574
2 48404  53.1598 172.1977 0001471  87.4556 298.3969 15.31710540    19

Śledź STARLINK-2593 w czasie rzeczywistym z AllMySat

Download on the App Store